Weather History for Lamoni, IA

Change the Weather History Date:

Monday, January 26, 2015

  Actual Average Record
Temperature  
Mean Temperature 40 °F 25 °F  
Max Temperature 54 °F 34 °F 64 °F (2002)
Min Temperature 26 °F 15 °F -6 °F (1950)
Degree Days  
Heating Degree Days 25 40  
Month to date heating degree days 1012 1065  
Since 1 July heating degree days 3398 3494  
Cooling Degree Days 0 0  
Month to date cooling degree days 0 0  
Year to date cooling degree days 0 0  
Moisture  
Dew Point 31 °F    
Average Humidity 73    
Maximum Humidity 92    
Minimum Humidity 54    
Precipitation  
Precipitation 0.00 in 0.03 in 0.33 in (1967)
Month to date precipitation 0.16 0.56  
Sea Level Pressure  
Sea Level Pressure 29.96 in    
Wind  
Wind Speed 13 mph (West)    
Max Wind Speed 26 mph    
Max Gust Speed 30 mph    
Visibility 10 miles    
Events      
T = Trace of Precipitation, MM = Missing Value Source: NWS Daily Summary

Daily Weather History Graph

Daily Weather History Graph

Search for Another Location

Airport:

Trip Planner

Search our weather history database for the weather conditions in past years. The results will help you decide how hot, cold, wet, or windy it might be!

Date:

Astronomy

Jan. 26, 2015 Rise Set
Actual Time 7:30 AM CST 5:25 PM CST
Civil Twilight 7:01 AM CST 5:55 PM CST
Nautical Twilight 6:28 AM CST 6:28 PM CST
Astronomical Twilight 5:56 AM CST 7:00 PM CST
Moon 11:12 AM CST (1/26) No Moon Set
Length of Visible Light 10h 53m
Length of Day
9h 55m
Waxing Crescent, 45% of the Moon is Illuminated
Jan 26
Waxing Crescent
Jan 26
First Quarter
Feb 3
Full
Feb 11
Last Quarter
Feb 18
New

Hourly Weather History & Observations

Time (CST) Temp. Windchill Dew Point Humidity Pressure Visibility Wind Dir Wind Speed Gust Speed Precip Events Conditions
12:53 AM 30.0 °F 26.5 °F 26.1 °F 85% 30.07 in 10.0 mi SSW 3.5 mph - N/A   Overcast
1:53 AM 30.0 °F 26.5 °F 26.1 °F 85% 30.07 in 10.0 mi WSW 3.5 mph - N/A   Overcast
2:53 AM 30.0 °F 24.1 °F 26.1 °F 85% 30.06 in 10.0 mi SSW 5.8 mph - N/A   Overcast
3:53 AM 30.0 °F 21.1 °F 27.0 °F 88% 30.04 in 10.0 mi SW 10.4 mph - N/A   Overcast
4:53 AM 28.9 °F 19.8 °F 26.1 °F 89% 30.03 in 10.0 mi WSW 10.4 mph - N/A   Mostly Cloudy
5:53 AM 28.0 °F 19.3 °F 25.0 °F 88% 29.99 in 10.0 mi SSW 9.2 mph - N/A   Mostly Cloudy
6:05 AM 28.0 °F 18.6 °F 25.0 °F 88% 29.95 in 10.0 mi SSW 10.4 mph - N/A   Scattered Clouds
6:53 AM 26.1 °F 15.6 °F 24.1 °F 92% 29.99 in 10.0 mi SSW 11.5 mph - N/A   Clear
7:53 AM 27.0 °F 16.7 °F 25.0 °F 92% 29.96 in 10.0 mi SSW 11.5 mph - N/A   Mostly Cloudy
8:53 AM 30.9 °F 21.2 °F 28.0 °F 89% 29.91 in 10.0 mi SSW 12.7 mph - N/A   Mostly Cloudy
9:53 AM 33.1 °F 23.0 °F 28.9 °F 85% 29.89 in 10.0 mi SW 15.0 mph - N/A   Overcast
10:53 AM 39.9 °F 32.1 °F 30.9 °F 70% 29.91 in 10.0 mi West 13.8 mph 25.3 mph N/A   Clear
11:53 AM 46.0 °F 38.3 °F 35.1 °F 66% 29.87 in 10.0 mi West 20.7 mph - N/A   Partly Cloudy
12:53 PM 50.0 °F - 36.0 °F 59% 29.86 in 10.0 mi WNW 19.6 mph - N/A   Clear
1:53 PM 53.1 °F - 37.0 °F 55% 29.86 in 10.0 mi NW 19.6 mph 28.8 mph N/A   Clear
2:53 PM 54.0 °F - 37.0 °F 53% 29.87 in 10.0 mi NW 23.0 mph 27.6 mph N/A   Clear
3:53 PM 53.1 °F - 37.0 °F 55% 29.90 in 10.0 mi NNW 18.4 mph - N/A   Clear
4:53 PM 51.1 °F - 36.0 °F 56% 29.92 in 10.0 mi NW 16.1 mph - N/A   Clear
5:53 PM 43.0 °F 36.8 °F 34.0 °F 71% 29.94 in 10.0 mi WNW 11.5 mph - N/A   Clear
6:53 PM 42.1 °F 35.2 °F 34.0 °F 73% 29.95 in 10.0 mi WNW 12.7 mph - N/A   Clear
7:53 PM 42.1 °F 35.7 °F 34.0 °F 73% 29.98 in 10.0 mi NW 11.5 mph - N/A   Clear
8:53 PM 42.1 °F 35.2 °F 34.0 °F 73% 29.98 in 10.0 mi NW 12.7 mph - N/A   Clear
9:53 PM 39.9 °F 32.5 °F 33.1 °F 77% 29.99 in 10.0 mi NNW 12.7 mph - N/A   Clear
10:53 PM 35.1 °F 28.6 °F 30.9 °F 85% 30.01 in 10.0 mi NW 8.1 mph - N/A   Clear
11:53 PM 33.1 °F 24.9 °F 30.0 °F 89% 30.04 in 10.0 mi WNW 10.4 mph - N/A   Clear